Location: Crocus Hill
(18.2167°N, 63.0667°W)
Time: 03:29:22
(UTC+00:00)

Meteor 2-17 Rocket - Pass Details

Date: 26 January 2020
Orbit: 934 x 957 km, 82.5° (Epoch: 17 February)

Event Time Altitude Azimuth Distance (km) Brightness Sun altitude
Rises 09:25:27 0° 349° (NNW) 3,590 7.2 -19.3°
Reaches altitude 10° 09:27:58 10° 345° (NNW) 2,643 6.5 -18.7°
Maximum altitude 09:33:52 59° 268° (W) 1,072 4.4 -17.4°
Drops below altitude 10° 09:39:45 10° 189° (S) 2,634 6.8 -16.0°
Sets 09:42:16 0° 186° (S) 3,578 7.6 -15.4°
